LNWLF11 KNZY-

Flight info

Callsign LNWLF11
Flight time N/A
Altitude VFR
Route
Aircraft H60/M-DOV/C

Departure

Time 2026-04-23 03:38
Airport North Island Naval Air Station-Halsey Field (KNZY)

Arrival

Time N/A
Airport -
Time Latitude Longitude Altitude Speed Heading
2026-04-23 03:34 32.69913 -117.20643 25 ft 0 kts 303°
2026-04-23 03:34 32.69914 -117.20644 25 ft 1 kts 301°
2026-04-23 03:34 32.69919 -117.20655 25 ft 3 kts 296°
2026-04-23 03:35 32.69934 -117.20687 25 ft 5 kts 302°
2026-04-23 03:35 32.69944 -117.20719 28 ft 5 kts 243°
2026-04-23 03:35 32.69909 -117.20749 25 ft 11 kts 212°
2026-04-23 03:35 32.69854 -117.20790 27 ft 7 kts 212°
2026-04-23 03:36 32.69812 -117.20820 27 ft 7 kts 212°
2026-04-23 03:36 32.69768 -117.20866 28 ft 9 kts 272°
2026-04-23 03:36 32.69794 -117.20930 26 ft 9 kts 301°
2026-04-23 03:36 32.69829 -117.20994 27 ft 9 kts 316°
2026-04-23 03:37 32.69870 -117.20995 25 ft 8 kts 29°
2026-04-23 03:37 32.69921 -117.21004 28 ft 6 kts 300°
2026-04-23 03:37 32.69934 -117.21029 28 ft 0 kts 301°
2026-04-23 03:38 32.69913 -117.21048 54 ft 18 kts 208°
2026-04-23 03:38 32.69485 -117.21250 293 ft 118 kts 205°
2026-04-23 03:38 32.68546 -117.21598 467 ft 150 kts 202°
2026-04-23 03:38 32.67538 -117.21944 990 ft 153 kts 204°
2026-04-23 03:39 32.66480 -117.22208 1294 ft 160 kts 195°
2026-04-23 03:39 32.65446 -117.22602 1330 ft 156 kts 210°
2026-04-23 03:39 32.64482 -117.23196 1414 ft 154 kts 214°
2026-04-23 03:39 32.63706 -117.23987 1381 ft 145 kts 236°
2026-04-23 03:40 32.63161 -117.24968 1462 ft 137 kts 244°
2026-04-23 03:40 32.62706 -117.25928 1625 ft 131 kts 247°
2026-04-23 03:40 32.62399 -117.26899 1799 ft 122 kts 265°
2026-04-23 03:40 32.62479 -117.27876 1725 ft 119 kts 292°
2026-04-23 03:41 32.62849 -117.28739 1596 ft 114 kts 301°
2026-04-23 03:41 32.63175 -117.29572 1658 ft 110 kts 294°
2026-04-23 03:41 32.63348 -117.30456 1716 ft 110 kts 284°
2026-04-23 03:41 32.63494 -117.31360 1719 ft 114 kts 285°
2026-04-23 03:42 32.63648 -117.32301 1638 ft 114 kts 285°
2026-04-23 03:42 32.63835 -117.33168 1778 ft 104 kts 291°
2026-04-23 03:42 32.64042 -117.34031 1848 ft 112 kts 289°
2026-04-23 03:42 32.64267 -117.34928 1893 ft 113 kts 293°
2026-04-23 03:43 32.64453 -117.35840 1942 ft 115 kts 282°
2026-04-23 03:43 32.64521 -117.36789 1940 ft 115 kts 281°
2026-04-23 03:43 32.64609 -117.37728 1920 ft 114 kts 283°
2026-04-23 03:43 32.64716 -117.38642 1997 ft 109 kts 283°
2026-04-23 03:44 32.64816 -117.39525 1986 ft 111 kts 283°
2026-04-23 03:44 32.64926 -117.40435 2006 ft 110 kts 284°
2026-04-23 03:44 32.65043 -117.41331 2004 ft 111 kts 284°
2026-04-23 03:44 32.65158 -117.42239 2008 ft 111 kts 284°
2026-04-23 03:45 32.65275 -117.43136 2009 ft 113 kts 284°
2026-04-23 03:45 32.65397 -117.44043 2010 ft 109 kts 284°
2026-04-23 03:45 32.65513 -117.44935 2012 ft 109 kts 284°
2026-04-23 03:45 32.65643 -117.45849 2012 ft 113 kts 284°
2026-04-23 03:46 32.65765 -117.46751 2014 ft 110 kts 284°
2026-04-23 03:46 32.65911 -117.47653 2015 ft 105 kts 285°
2026-04-23 03:46 32.66037 -117.48510 2016 ft 107 kts 285°
2026-04-23 03:46 32.66115 -117.49087 2012 ft 103 kts 285°
2026-04-23 03:47 32.66237 -117.49948 2014 ft 107 kts 285°
2026-04-23 03:47 32.66382 -117.50843 2013 ft 110 kts 285°
2026-04-23 03:47 32.66522 -117.51722 2011 ft 106 kts 285°
2026-04-23 03:47 32.66650 -117.52574 2014 ft 108 kts 285°
2026-04-23 03:48 32.66799 -117.53438 2012 ft 109 kts 285°
2026-04-23 03:48 32.66949 -117.54305 2014 ft 107 kts 285°
2026-04-23 03:48 32.67088 -117.55183 1997 ft 113 kts 285°
2026-04-23 03:48 32.67243 -117.56157 2000 ft 125 kts 285°
2026-04-23 03:49 32.67402 -117.57196 2003 ft 130 kts 285°
2026-04-23 03:49 32.67563 -117.58263 2015 ft 130 kts 285°
2026-04-23 03:49 32.67726 -117.59326 2008 ft 131 kts 285°
2026-04-23 03:49 32.67899 -117.60394 2016 ft 131 kts 285°
2026-04-23 03:50 32.68090 -117.61452 2017 ft 131 kts 285°
2026-04-23 03:50 32.68283 -117.62508 2019 ft 130 kts 285°
2026-04-23 03:50 32.68479 -117.63558 2018 ft 130 kts 285°
2026-04-23 03:50 32.68667 -117.64590 2015 ft 130 kts 285°
2026-04-23 03:51 32.68816 -117.65445 2072 ft 71 kts 285°
2026-04-23 03:51 32.68934 -117.66006 2047 ft 81 kts 287°
2026-04-23 03:51 32.69022 -117.66668 2052 ft 79 kts 285°
2026-04-23 03:51 32.69101 -117.67245 2052 ft 60 kts 285°
2026-04-23 03:52 32.69200 -117.67646 2028 ft 45 kts 285°
2026-04-23 03:52 32.69305 -117.67972 2022 ft 39 kts 285°
2026-04-23 03:52 32.69382 -117.68183 2036 ft 17 kts 285°
2026-04-23 03:52 32.69429 -117.68247 2033 ft 8 kts 285°
2026-04-23 03:53 32.69506 -117.68432 2121 ft 50 kts 285°
2026-04-23 03:53 32.69645 -117.68916 2565 ft 74 kts 286°
2026-04-23 03:53 32.69696 -117.69612 2857 ft 97 kts 279°
2026-04-23 03:53 32.69740 -117.70519 2462 ft 119 kts 279°
2026-04-23 03:54 32.69773 -117.71344 2162 ft 84 kts 279°
2026-04-23 03:54 32.69809 -117.71948 1954 ft 65 kts 279°
2026-04-23 03:54 32.69881 -117.72418 1749 ft 53 kts 279°
2026-04-23 03:54 32.70037 -117.72771 1792 ft 42 kts 281°
2026-04-23 03:55 32.70190 -117.72980 1642 ft 20 kts 281°
2026-04-23 03:55 32.70222 -117.72972 1525 ft 9 kts 281°
2026-04-23 03:55 32.70219 -117.72911 1389 ft 7 kts 281°
2026-04-23 03:55 32.70206 -117.72858 1259 ft 7 kts 281°
2026-04-23 03:56 32.70195 -117.72805 1137 ft 7 kts 281°
2026-04-23 03:56 32.70251 -117.73301 998 ft 112 kts 281°
2026-04-23 03:56 32.70350 -117.74145 892 ft 101 kts 281°
2026-04-23 03:56 32.70480 -117.74989 485 ft 102 kts 281°
2026-04-23 03:57 32.70603 -117.75786 355 ft 89 kts 281°
2026-04-23 03:57 32.70695 -117.76390 128 ft 51 kts 281°
2026-04-23 03:57 32.70764 -117.76604 90 ft 4 kts 281°
2026-04-23 03:57 32.70776 -117.76560 37 ft 1 kts 281°
2026-04-23 03:58 32.70778 -117.76598 48 ft 6 kts 281°
2026-04-23 03:58 32.70788 -117.76648 52 ft 6 kts 281°
2026-04-23 03:58 32.70797 -117.76700 53 ft 6 kts 281°
2026-04-23 03:58 32.70805 -117.76751 56 ft 6 kts 281°
2026-04-23 03:59 32.70814 -117.76803 50 ft 6 kts 281°
2026-04-23 03:59 32.70823 -117.76854 53 ft 6 kts 281°
2026-04-23 03:59 32.70832 -117.76906 51 ft 6 kts 281°
2026-04-23 03:59 32.70840 -117.76958 58 ft 6 kts 281°
2026-04-23 04:00 32.70849 -117.77011 52 ft 7 kts 281°
2026-04-23 04:00 32.70858 -117.77063 52 ft 6 kts 281°
2026-04-23 04:00 32.70867 -117.77115 54 ft 6 kts 281°
2026-04-23 04:00 32.70876 -117.77168 54 ft 7 kts 281°
2026-04-23 04:01 32.70885 -117.77220 50 ft 7 kts 281°
2026-04-23 04:01 32.70894 -117.77273 52 ft 7 kts 281°
2026-04-23 04:01 32.70903 -117.77326 54 ft 6 kts 281°
2026-04-23 04:01 32.70912 -117.77378 55 ft 6 kts 281°
2026-04-23 04:02 32.70920 -117.77430 49 ft 6 kts 281°
2026-04-23 04:02 32.70929 -117.77481 53 ft 6 kts 281°
2026-04-23 04:02 32.70938 -117.77534 56 ft 6 kts 281°
2026-04-23 04:02 32.70947 -117.77586 51 ft 7 kts 281°
2026-04-23 04:03 32.70956 -117.77638 55 ft 6 kts 281°
2026-04-23 04:03 32.70965 -117.77691 53 ft 7 kts 281°
2026-04-23 04:03 32.70974 -117.77744 55 ft 7 kts 281°
2026-04-23 04:03 32.70983 -117.77797 55 ft 7 kts 281°
2026-04-23 04:04 32.70992 -117.77850 55 ft 7 kts 281°
2026-04-23 04:04 32.71001 -117.77902 49 ft 6 kts 281°
2026-04-23 04:04 32.71009 -117.77954 53 ft 6 kts 281°
2026-04-23 04:04 32.71018 -117.78007 51 ft 6 kts 281°
2026-04-23 04:05 32.71024 -117.78041 53 ft 6 kts 281°
2026-04-23 04:05 32.71025 -117.78047 55 ft 6 kts 281°
2026-04-23 04:05 32.71033 -117.78099 57 ft 6 kts 281°
2026-04-23 04:06 32.71042 -117.78151 53 ft 6 kts 281°
2026-04-23 04:06 32.71051 -117.78204 52 ft 6 kts 281°
2026-04-23 04:06 32.71060 -117.78256 54 ft 6 kts 281°
2026-04-23 04:06 32.71069 -117.78309 52 ft 6 kts 281°
2026-04-23 04:07 32.71078 -117.78361 50 ft 7 kts 281°
2026-04-23 04:07 32.71087 -117.78414 49 ft 7 kts 281°
2026-04-23 04:07 32.71096 -117.78467 56 ft 7 kts 281°
2026-04-23 04:07 32.71105 -117.78520 56 ft 6 kts 281°
2026-04-23 04:08 32.71114 -117.78572 55 ft 6 kts 281°
2026-04-23 04:08 32.71123 -117.78624 52 ft 7 kts 281°
2026-04-23 04:08 32.71131 -117.78676 51 ft 6 kts 281°
2026-04-23 04:08 32.71140 -117.78728 55 ft 6 kts 281°
2026-04-23 04:09 32.71149 -117.78780 55 ft 6 kts 281°
2026-04-23 04:09 32.71158 -117.78831 54 ft 6 kts 281°
2026-04-23 04:09 32.71167 -117.78883 54 ft 6 kts 281°
2026-04-23 04:09 32.71175 -117.78935 54 ft 6 kts 281°
2026-04-23 04:10 32.71184 -117.78987 54 ft 6 kts 281°
2026-04-23 04:10 32.71193 -117.79039 52 ft 6 kts 281°
2026-04-23 04:10 32.71202 -117.79091 52 ft 6 kts 281°
2026-04-23 04:10 32.71211 -117.79143 54 ft 6 kts 281°
2026-04-23 04:11 32.71219 -117.79194 52 ft 6 kts 281°
2026-04-23 04:11 32.71228 -117.79245 53 ft 6 kts 281°
2026-04-23 04:11 32.71237 -117.79296 54 ft 6 kts 281°
2026-04-23 04:11 32.71245 -117.79346 53 ft 6 kts 281°
2026-04-23 04:12 32.71254 -117.79397 54 ft 6 kts 281°
2026-04-23 04:12 32.71262 -117.79448 51 ft 6 kts 281°
2026-04-23 04:12 32.71271 -117.79499 56 ft 6 kts 281°
2026-04-23 04:12 32.71280 -117.79550 55 ft 6 kts 281°
2026-04-23 04:13 32.71288 -117.79601 51 ft 6 kts 281°
2026-04-23 04:13 32.71297 -117.79652 51 ft 6 kts 281°
2026-04-23 04:13 32.71306 -117.79703 52 ft 6 kts 281°
2026-04-23 04:13 32.71314 -117.79753 55 ft 6 kts 281°
2026-04-23 04:14 32.71323 -117.79803 53 ft 6 kts 281°
2026-04-23 04:14 32.71331 -117.79853 50 ft 6 kts 281°
2026-04-23 04:14 32.71340 -117.79903 57 ft 6 kts 281°
2026-04-23 04:14 32.71348 -117.79954 53 ft 6 kts 281°
2026-04-23 04:15 32.71357 -117.80004 54 ft 6 kts 281°
2026-04-23 04:15 32.71365 -117.80054 55 ft 6 kts 281°
2026-04-23 04:15 32.71459 -117.80150 238 ft 40 kts 10°
2026-04-23 04:16 32.71600 -117.79799 617 ft 77 kts 112°
2026-04-23 04:16 32.71209 -117.79072 1028 ft 120 kts 129°
2026-04-23 04:16 32.70772 -117.78112 1301 ft 142 kts 115°
2026-04-23 04:16 32.70444 -117.76944 1182 ft 154 kts 106°
2026-04-23 04:17 32.70184 -117.75694 1211 ft 156 kts 98°
2026-04-23 04:17 32.70071 -117.74442 1608 ft 149 kts 91°